Wind_Speed
9 10 11 13 14 16 17 20 22 24 26 28 30 32 36 39 40 42 44 46 47 48 48 49 50 50 53 56 58 61 63 60 59 62 64 65 65 65 64 62 61 65 65 60 56
12 13 14 15 15 17 20 22 24 27 29 30 32 35 37 38 40 42 43 45 46 48 48 50 52 55 59 62 65 67 67 65 66 67 68 67 68 69 69 67 63 65 69 65 59
14 14 14 14 17 19 21 24 27 28 29 31 34 36 37 38 41 42 43 45 46 47 49 53 57 61 64 67 66 68 68 66 69 70 71 70 70 69 72 71 68 66 70 70 65
14 14 13 16 17 20 22 24 26 28 30 33 35 36 37 38 40 43 46 46 47 50 54 59 62 66 66 64 61 64 61 63 62 68 71 71 69 71 72 69 66 64 69 72 70
14 15 16 16 18 20 21 23 26 28 30 32 34 35 36 38 41 45 46 48 51 55 60 63 62 60 59 57 55 57 58 62 64 66 66 69 71 69 70 68 59 65 67 71 72
14 16 17 18 19 21 23 25 26 28 31 33 34 35 37 40 44 45 47 50 54 58 58 59 51 38 30 34 38 35 40 43 55 61 66 68 65 70 66 64 60 63 64 70 73
14 15 17 20 21 22 25 27 30 30 32 35 36 36 39 42 44 46 49 52 54 56 47 36 32 32 33 32 33 37 43 45 41 43 55 59 65 66 58 59 60 58 61 69 73
16 18 19 21 23 25 27 28 31 34 35 37 36 37 39 42 44 46 48 49 51 41 26 31 31 28 28 31 35 38 35 37 36 44 43 53 61 52 57 57 61 57 60 68 73
19 20 21 23 24 26 28 30 32 36 38 38 37 38 39 41 43 45 46 45 40 23 26 30 25 28 32 35 36 36 34 31 34 39 48 50 48 45 50 50 57 57 59 71 73
24 25 25 26 27 27 28 31 33 36 39 40 37 38 38 40 41 43 42 37 22 23 29 26 25 32 31 34 35 36 34 32 31 33 44 48 37 34 41 47 50 57 63 74 76
27 29 29 28 26 28 30 31 33 34 39 42 39 37 38 39 40 41 35 27 20 25 26 24 27 33 35 39 37 35 32 32 22 26 33 38 42 34 44 47 43 53 68 75 77
27 24 28 29 26 26 28 31 32 36 37 42 39 37 37 38 37 37 30 22 24 27 27 27 28 32 34 36 35 33 33 27 24 23 29 26 36 37 43 46 45 51 71 78 79
28 27 26 28 26 25 27 31 31 35 37 42 38 37 36 36 35 34 29 24 27 34 31 31 28 31 32 28 29 25 26 26 24 24 29 26 29 33 35 43 46 55 72 79 65
32 32 29 26 28 27 28 30 32 35 36 39 40 36 35 35 33 33 29 28 29 30 29 26 27 28 29 25 24 20 22 22 26 23 18 25 11 22 32 40 44 53 67 79 74
34 33 32 31 27 26 29 29 31 35 38 39 41 36 34 35 33 33 32 30 29 28 26 26 29 29 25 19 20 20 21 22 26 23 28 21 26 7 27 33 40 51 64 77 58
36 33 33 32 29 27 29 29 31 34 38 39 41 37 34 34 33 32 30 30 29 27 26 28 30 29 26 19 19 20 22 25 26 24 17 12 20 2 23 30 39 48 59 70 58
41 35 33 34 31 29 28 30 32 33 35 38 39 38 35 34 33 33 31 32 31 27 26 25 26 28 24 24 24 26 27 23 21 27 25 16 19 10 18 22 32 41 55 70 51
42 40 35 33 34 30 30 29 32 32 33 37 39 39 35 34 33 32 32 31 31 33 30 27 24 24 25 25 24 25 21 19 25 23 22 24 24 17 14 14 29 33 45 64 58
45 43 40 35 36 32 30 29 31 31 32 36 38 38 35 34 33 32 31 31 31 34 30 31 21 24 21 25 26 23 20 20 19 18 24 23 25 17 20 22 23 37 38 63 58
45 43 42 39 35 36 31 29 30 31 31 34 37 38 35 34 31 32 31 31 31 32 34 33 23 20 20 20 22 23 21 18 15 23 28 28 18 13 9 13 20 38 36 53 70
48 44 41 41 38 37 33 31 30 30 31 31 35 38 36 34 32 32 32 32 31 32 34 32 26 19 23 17 18 17 17 16 13 18 21 27 16 7 6 12 22 29 30 51 53
53 49 44 42 41 38 34 33 31 30 30 30 32 35 36 34 32 31 30 31 32 31 32 31 30 20 15 16 16 16 14 14 13 12 17 16 7 4 8 16 23 28 32 41 48
59 53 49 44 41 38 36 34 32 30 29 29 31 33 35 34 34 30 29 30 31 31 32 31 29 20 11 15 15 13 13 14 12 9 14 12 6 4 10 16 24 31 45 41 50
65 59 54 47 43 40 39 37 34 31 29 29 30 31 35 33 34 31 27 27 29 29 29 28 27 21 17 15 13 12 10 10 7 6 13 16 8 2 9 29 23 20 43 43 51
71 64 57 50 45 43 42 39 34 32 30 30 29 28 33 30 32 33 27 25 28 28 26 28 24 21 18 15 11 10 8 6 2 6 7 9 1 11 8 28 26 26 42 44 45
72 67 60 54 50 47 43 37 33 34 30 30 28 26 31 28 29 32 29 26 24 27 26 26 24 20 16 9 6 10 7 4 5 2 8 5 3 10 5 29 34 35 42 42 43
73 68 63 57 53 50 43 38 38 35 32 30 30 27 28 26 25 29 29 23 22 24 24 23 24 20 13 9 9 10 5 0 5 2 5 2 6 7 5 20 25 34 37 41 40
Wind_Direction
266 272 276 280 284 288 290 289 289 290 293 299 301 299 298 296 297 297 295 293 291 288 286 285 282 280 278 277 275 274 270 266 263 258 256 255 254 251 248 245 236 239 240 240 239
269 275 281 283 286 289 292 292 295 301 304 304 302 301 299 299 299 298 296 295 294 292 290 287 287 285 284 281 279 275 273 269 263 258 254 250 250 249 247 244 238 233 240 238 236
270 276 282 285 291 295 298 302 305 306 306 305 303 302 302 302 302 302 301 299 297 294 292 291 289 288 285 282 279 274 273 265 260 256 252 248 244 244 244 242 240 233 233 237 235
276 280 286 291 293 298 302 310 313 310 309 307 306 306 307 308 308 308 305 304 301 301 299 297 293 290 286 285 280 275 272 265 260 255 251 246 241 241 240 239 237 232 229 232 234
276 281 286 287 294 301 309 315 314 314 313 314 311 310 311 310 310 310 310 309 308 306 302 298 294 292 289 286 281 277 267 261 257 254 253 250 243 242 238 237 233 234 228 227 231
281 286 288 293 301 307 313 318 320 323 323 321 316 316 314 315 315 315 314 313 310 307 304 300 303 303 299 297 293 291 286 273 260 258 254 251 248 245 237 239 236 233 227 224 226
286 290 291 294 297 305 312 320 323 326 329 326 323 319 319 319 319 318 317 316 314 311 311 312 311 300 302 299 299 298 290 277 270 262 255 252 245 244 243 240 237 231 227 223 223
282 287 292 296 300 304 310 318 323 326 330 329 326 322 322 322 322 322 322 320 318 316 314 314 311 310 307 296 299 304 304 288 272 263 258 249 243 237 240 237 235 232 223 223 221
278 281 287 291 297 302 306 312 319 326 329 331 328 324 326 326 326 326 329 326 323 316 315 313 306 308 308 305 304 303 312 308 277 263 254 252 246 231 240 239 231 230 218 221 219
281 285 287 292 297 301 305 309 315 323 328 331 328 327 330 329 330 333 334 332 327 318 316 308 301 305 302 303 307 307 307 313 286 276 251 249 245 226 234 235 232 224 212 214 219
278 282 285 289 294 297 302 307 312 318 326 330 330 329 331 331 334 339 340 339 326 323 318 310 304 306 304 305 306 306 310 310 299 277 266 250 242 227 234 235 237 223 208 211 216
275 283 285 284 291 297 302 306 313 316 325 330 330 330 333 333 335 341 340 339 328 319 316 310 306 307 309 310 310 309 316 312 308 278 264 250 242 233 236 233 234 225 208 209 211
279 282 283 280 287 297 301 304 312 314 322 330 331 331 333 334 334 340 334 322 323 319 315 307 307 315 318 312 316 322 309 302 302 291 277 257 241 229 231 235 233 223 208 209 206
284 289 281 288 282 294 297 303 310 312 319 328 331 331 334 334 334 337 332 321 315 322 324 310 313 319 323 318 323 328 322 318 304 291 296 274 306 247 242 240 233 223 211 206 202
279 286 286 282 286 290 293 301 308 312 319 326 330 330 333 333 333 334 334 326 324 320 321 320 321 320 322 314 307 315 324 330 338 316 296 296 294 205 229 233 230 220 210 202 200
278 277 284 281 283 285 292 297 303 309 318 327 328 329 332 332 332 333 334 332 325 317 312 311 316 320 318 307 319 321 314 313 320 331 306 297 288 255 240 232 222 213 208 193 196
273 276 275 282 279 282 287 292 298 305 315 322 327 328 331 331 331 331 336 333 329 326 313 312 311 308 315 316 315 315 314 320 333 328 325 297 305 331 257 246 218 213 205 196 202
265 272 272 275 278 279 283 289 295 303 311 319 326 327 331 329 331 331 334 335 335 330 319 315 304 306 305 308 316 330 323 323 310 307 319 315 293 302 271 222 218 208 200 198 194
261 264 271 270 274 275 278 283 291 297 307 315 323 326 330 327 328 332 333 332 333 335 332 322 318 302 307 306 311 324 319 321 309 314 321 313 312 298 268 245 222 212 204 198 190
256 259 264 267 267 272 273 281 286 292 302 311 321 324 328 328 326 328 332 334 335 333 335 331 318 307 299 305 306 310 317 313 318 340 334 332 322 291 259 248 211 205 207 193 201
250 254 260 262 264 267 272 275 280 288 297 307 317 322 326 330 326 325 330 335 335 333 333 335 329 323 307 303 312 311 314 319 312 348 356 331 318 266 248 204 185 184 192 192 193
248 250 252 257 261 265 268 270 276 283 293 303 312 321 324 329 331 324 326 332 333 334 331 334 331 325 306 301 313 325 318 329 305 321 335 328 296 232 256 171 182 180 186 182 183
245 247 248 252 259 261 261 265 270 277 287 298 308 321 322 327 332 323 324 328 332 334 333 333 334 327 306 299 307 306 328 319 313 354 341 324 323 294 230 186 198 198 169 178 178
243 242 245 249 255 259 260 262 267 271 281 291 303 318 319 325 331 330 325 327 331 333 332 333 334 328 314 304 311 307 312 327 310 328 327 313 301 285 11 165 186 188 165 179 174
237 241 241 245 249 254 258 261 264 265 273 284 296 313 315 322 330 330 326 328 331 333 332 338 333 329 312 314 308 314 307 326 246 11 346 309 192 112 36 164 178 182 165 175 178
231 234 237 242 244 248 256 260 259 258 266 278 288 305 312 318 328 330 330 326 333 333 334 337 333 332 325 316 323 325 317 315 244 279 25 35 106 88 41 163 162 171 171 178 175
228 228 233 236 240 245 250 253 252 256 260 270 281 297 307 312 324 328 330 327 333 337 337 332 339 339 331 307 305 323 308 280 159 184 54 99 108 141 74 158 173 173 180 165 171
Height
5815 5815 5816 5816 5817 5816 5816 5816 5814 5812 5809 5806 5804 5802 5799 5796 5793 5790 5787 5784 5781 5777 5775 5772 5770 5768 5766 5763 5761 5759 5760 5769 5770 5767 5767 5767 5771 5774 5780 5786 5790 5793 5796 5803 5811
5813 5813 5813 5813 5813 5813 5812 5811 5809 5806 5803 5801 5798 5795 5792 5789 5786 5782 5779 5775 5770 5766 5764 5760 5757 5754 5751 5747 5744 5741 5745 5751 5746 5743 5747 5753 5755 5757 5764 5771 5773 5781 5783 5790 5799
5811 5811 5810 5810 5810 5809 5808 5806 5803 5801 5798 5796 5792 5788 5785 5781 5777 5773 5769 5765 5760 5756 5752 5748 5743 5739 5735 5729 5724 5722 5729 5722 5724 5722 5724 5732 5737 5738 5746 5755 5760 5765 5772 5777 5786
5807 5807 5807 5806 5806 5805 5803 5801 5798 5796 5793 5790 5786 5781 5777 5772 5769 5763 5759 5755 5749 5744 5738 5732 5725 5719 5714 5708 5705 5702 5707 5700 5705 5701 5703 5711 5718 5721 5727 5740 5746 5750 5758 5765 5773
5805 5804 5804 5803 5802 5801 5799 5796 5794 5791 5788 5784 5779 5775 5770 5765 5760 5754 5749 5743 5737 5730 5723 5715 5707 5701 5697 5692 5686 5684 5687 5683 5684 5683 5686 5689 5697 5702 5711 5721 5729 5732 5743 5753 5759
5801 5801 5801 5800 5798 5797 5795 5792 5788 5785 5782 5777 5773 5767 5763 5757 5750 5744 5738 5732 5725 5717 5707 5699 5693 5687 5685 5682 5677 5673 5669 5667 5667 5669 5668 5670 5680 5680 5701 5705 5712 5716 5727 5736 5746
5797 5797 5796 5796 5794 5793 5790 5787 5783 5780 5776 5771 5765 5760 5755 5750 5742 5736 5728 5721 5712 5704 5694 5688 5686 5682 5678 5674 5669 5664 5659 5653 5658 5653 5651 5652 5657 5667 5689 5685 5694 5702 5712 5722 5732
5792 5792 5792 5791 5790 5788 5785 5782 5778 5774 5770 5764 5759 5754 5748 5742 5736 5728 5720 5711 5702 5693 5689 5685 5680 5676 5671 5667 5661 5656 5649 5643 5644 5640 5640 5634 5640 5664 5662 5670 5680 5688 5699 5707 5719
5788 5787 5787 5786 5785 5783 5780 5777 5773 5768 5764 5759 5753 5748 5742 5736 5729 5721 5712 5702 5693 5689 5686 5680 5676 5671 5666 5661 5655 5648 5642 5636 5633 5629 5625 5623 5633 5655 5649 5655 5665 5673 5684 5693 5706
5783 5783 5782 5781 5779 5777 5774 5771 5768 5764 5759 5754 5748 5744 5737 5730 5723 5713 5704 5695 5690 5686 5681 5675 5671 5666 5660 5654 5648 5641 5634 5629 5623 5621 5614 5618 5629 5640 5640 5642 5651 5658 5669 5680 5692
5778 5777 5776 5775 5774 5772 5770 5766 5765 5762 5755 5751 5744 5737 5730 5723 5717 5707 5699 5692 5688 5684 5677 5672 5668 5661 5655 5648 5641 5634 5628 5622 5617 5613 5609 5612 5618 5630 5627 5630 5638 5645 5657 5667 5680
5772 5771 5770 5769 5768 5766 5764 5761 5757 5755 5751 5745 5738 5731 5725 5718 5711 5703 5695 5690 5685 5679 5674 5669 5663 5657 5650 5642 5635 5630 5624 5619 5614 5608 5601 5604 5610 5617 5615 5621 5628 5633 5644 5654 5669
5766 5764 5763 5762 5762 5761 5758 5756 5752 5749 5747 5741 5734 5727 5720 5714 5707 5699 5692 5686 5680 5674 5669 5663 5658 5651 5644 5638 5631 5627 5620 5615 5610 5605 5601 5600 5599 5603 5610 5610 5615 5620 5634 5644 5662
5759 5758 5757 5756 5757 5754 5753 5750 5747 5744 5741 5737 5730 5724 5716 5709 5703 5696 5689 5683 5677 5671 5664 5659 5654 5648 5641 5634 5630 5625 5619 5614 5608 5603 5600 5596 5592 5598 5600 5600 5604 5612 5622 5638 5657
5752 5752 5751 5750 5749 5748 5748 5745 5742 5740 5735 5731 5725 5718 5711 5706 5699 5692 5684 5677 5671 5665 5662 5656 5651 5645 5638 5633 5627 5624 5618 5613 5607 5601 5597 5596 5590 5591 5589 5591 5595 5602 5615 5632 5651
5744 5745 5744 5744 5744 5742 5741 5740 5738 5737 5730 5726 5720 5714 5707 5702 5695 5689 5681 5674 5668 5662 5656 5652 5647 5642 5636 5631 5626 5622 5617 5612 5606 5601 5597 5595 5590 5590 5586 5585 5587 5596 5611 5628 5642
5737 5737 5737 5737 5737 5736 5736 5735 5734 5731 5727 5722 5716 5710 5702 5697 5691 5684 5677 5670 5664 5659 5654 5648 5643 5639 5634 5630 5625 5620 5614 5609 5605 5600 5596 5593 5590 5588 5586 5585 5589 5595 5606 5626 5636
5728 5729 5729 5730 5730 5730 5730 5729 5727 5725 5721 5717 5712 5705 5698 5693 5688 5681 5674 5668 5660 5653 5648 5643 5640 5635 5630 5626 5622 5617 5613 5609 5603 5598 5595 5593 5588 5590 5588 5587 5592 5596 5606 5620 5635
5718 5720 5721 5722 5723 5723 5723 5723 5721 5720 5717 5713 5708 5703 5695 5689 5683 5678 5671 5664 5658 5651 5644 5637 5635 5629 5626 5622 5619 5615 5612 5608 5602 5599 5593 5590 5586 5584 5582 5583 5586 5594 5602 5614 5629
5707 5711 5713 5714 5714 5716 5715 5717 5715 5713 5711 5708 5704 5699 5692 5686 5680 5674 5667 5661 5654 5648 5641 5634 5629 5625 5622 5619 5616 5613 5610 5606 5603 5597 5591 5588 5583 5580 5579 5578 5581 5590 5599 5609 5624
5696 5699 5704 5705 5706 5708 5708 5710 5709 5708 5706 5704 5700 5694 5688 5683 5676 5670 5664 5658 5651 5644 5638 5631 5626 5625 5618 5615 5613 5611 5608 5605 5602 5600 5594 5586 5582 5579 5579 5579 5581 5591 5602 5610 5623
5684 5689 5692 5695 5698 5700 5702 5703 5704 5702 5701 5698 5696 5690 5684 5679 5674 5666 5660 5654 5648 5642 5636 5629 5623 5619 5616 5613 5611 5608 5606 5604 5601 5600 5595 5589 5584 5583 5581 5582 5587 5593 5599 5611 5624
5669 5677 5680 5685 5689 5692 5694 5695 5697 5697 5695 5693 5690 5686 5681 5675 5670 5664 5657 5652 5645 5639 5633 5628 5620 5616 5614 5612 5609 5607 5605 5602 5600 5598 5595 5590 5587 5585 5584 5587 5590 5596 5604 5611 5622
5654 5662 5670 5674 5681 5684 5686 5688 5690 5690 5689 5688 5685 5682 5678 5672 5666 5662 5656 5650 5643 5638 5632 5625 5620 5615 5612 5609 5607 5605 5604 5601 5599 5599 5595 5590 5588 5587 5586 5587 5594 5599 5604 5615 5624
5637 5650 5660 5665 5671 5675 5676 5680 5683 5683 5684 5682 5681 5678 5675 5670 5664 5658 5653 5648 5642 5636 5631 5624 5619 5613 5609 5607 5605 5603 5602 5601 5599 5600 5597 5592 5591 5592 5591 5593 5598 5604 5610 5622 5630
5622 5637 5647 5654 5659 5665 5666 5674 5675 5675 5678 5677 5676 5674 5671 5667 5662 5656 5651 5645 5640 5634 5629 5623 5618 5612 5608 5605 5604 5602 5601 5600 5600 5601 5599 5595 5596 5596 5597 5598 5603 5610 5617 5625 5633
5606 5621 5633 5640 5647 5654 5660 5665 5665 5669 5671 5671 5671 5669 5667 5664 5659 5655 5649 5643 5639 5634 5628 5622 5617 5612 5607 5605 5603 5603 5600 5600 5602 5602 5600 5599 5600 5602 5603 5604 5606 5612 5619 5625 5636